When you browse on this site, cookies collect data to enhance your experience and personalize the content and advertising you see.
Visit our Privacy Policy to learn more. By continuing to use the site, you agree to this use of cookies and data.
  • In Switzerland
  • List of Countries
  • For 7 days
  • Water Temperature
  • Satellite Maps
  • Weather Map
  • Weather Widgets
  • user-avatar
    Login

    Hourly Weather Mochudi

    Today, 22 January, Tuesday

    Time Temperature Precipitation Wind Pressure Humidity
    00:00 +26°C° 0 mm 1 mps 681 mmHg 34%
    01:00 +25°C° 0 mm 1 mps 681 mmHg 37%
    02:00 +24°C° 0 mm 1 mps 680 mmHg 41%
    03:00 +24°C° 0 mm 1 mps 680 mmHg 43%
    04:00 +23°C° 0 mm 1 mps 680 mmHg 45%
    05:00 +23°C° 0 mm 1 mps 680 mmHg 47%
    06:00 +24°C° 0 mm 1 mps 681 mmHg 44%
    07:00 +25°C° 0 mm 2 mps 681 mmHg 41%
    08:00 +27°C° 0 mm 2 mps 682 mmHg 39%
    09:00 +29°C° 0 mm 2 mps 682 mmHg 33%
    10:00 +32°C° 0 mm 1 mps 682 mmHg 27%
    11:00 +35°C° 0 mm 1 mps 683 mmHg 22%
    12:00 +36°C° 0 mm 1 mps 682 mmHg 18%
    13:00 +38°C° 0 mm 2 mps 681 mmHg 15%
    14:00 +38°C° 0 mm 3 mps 681 mmHg 12%
    15:00 +38°C° 0 mm 2 mps 680 mmHg 12%
    16:00 +38°C° 0 mm 2 mps 679 mmHg 11%
    17:00 +39°C° 0 mm 2 mps 679 mmHg 11%
    18:00 +37°C° 0 mm 2 mps 678 mmHg 13%
    19:00 +35°C° 0 mm 2 mps 678 mmHg 14%
    20:00 +32°C° 0 mm 2 mps 678 mmHg 16%
    21:00 +31°C° 0 mm 2 mps 678 mmHg 17%
    22:00 +30°C° 0 mm 2 mps 678 mmHg 18%
    23:00 +29°C° 0 mm 2 mps 678 mmHg 19%

    Tomorrow, 23 January, Wednesday

    Time Temperature Precipitation Wind Pressure Humidity
    00:00 +29°C° 0 mm 2 mps 678 mmHg 20%
    01:00 +28°C° 0 mm 2 mps 678 mmHg 21%
    02:00 +27°C° 0 mm 2 mps 678 mmHg 22%
    03:00 +26°C° 0 mm 2 mps 678 mmHg 24%
    04:00 +25°C° 0 mm 2 mps 677 mmHg 27%
    05:00 +25°C° 0 mm 2 mps 677 mmHg 29%
    06:00 +26°C° 0 mm 2 mps 678 mmHg 27%
    07:00 +28°C° 0 mm 2 mps 679 mmHg 26%
    08:00 +29°C° 0 mm 3 mps 680 mmHg 25%
    09:00 +31°C° 0 mm 2 mps 680 mmHg 21%
    10:00 +35°C° 0 mm 2 mps 680 mmHg 18%
    11:00 +37°C° 0 mm 2 mps 680 mmHg 15%
    12:00 +38°C° 0 mm 2 mps 680 mmHg 14%
    13:00 +40°C° 0 mm 2 mps 679 mmHg 13%
    14:00 +41°C° 0 mm 1 mps 679 mmHg 12%
    15:00 +41°C° 0 mm 1 mps 678 mmHg 12%
    16:00 +41°C° 0 mm 1 mps 678 mmHg 12%
    17:00 +41°C° 0 mm 1 mps 677 mmHg 12%
    18:00 +39°C° 0 mm 1 mps 677 mmHg 13%
    19:00 +36°C° 0 mm 1 mps 677 mmHg 15%
    20:00 +35°C° 0 mm 1 mps 677 mmHg 16%
    21:00 +34°C° 0 mm 1 mps 677 mmHg 17%
    22:00 +35°C° 0 mm 2 mps 677 mmHg 17%
    23:00 +34°C° 0 mm 3 mps 677 mmHg 18%

    Day after tomorrow, 24 January, Thursday

    Time Temperature Precipitation Wind Pressure Humidity
    00:00 +32°C° 0 mm 2 mps 677 mmHg 20%
    01:00 +31°C° 0 mm 2 mps 676 mmHg 22%
    02:00 +30°C° 0 mm 2 mps 676 mmHg 23%
    03:00 +29°C° 0 mm 2 mps 676 mmHg 26%
    04:00 +28°C° 0 mm 2 mps 676 mmHg 29%
    05:00 +27°C° 0 mm 3 mps 676 mmHg 32%
    06:00 +28°C° 0 mm 2 mps 677 mmHg 33%
    07:00 +28°C° 0 mm 2 mps 678 mmHg 33%
    08:00 +29°C° 0 mm 2 mps 678 mmHg 34%
    09:00 +33°C° 0 mm 3 mps 679 mmHg 30%
    10:00 +35°C° 0 mm 4 mps 679 mmHg 25%
    11:00 +39°C° 0 mm 5 mps 680 mmHg 21%
    12:00 +40°C° 0 mm 4 mps 679 mmHg 19%
    13:00 +41°C° 0 mm 4 mps 679 mmHg 17%
    14:00 +42°C° 0 mm 3 mps 678 mmHg 15%
    15:00 +41°C° 0 mm 2 mps 678 mmHg 15%
    16:00 +41°C° 0 mm 2 mps 677 mmHg 15%
    17:00 +41°C° 0 mm 1 mps 677 mmHg 15%
    18:00 +39°C° 0 mm 2 mps 677 mmHg 17%
    19:00 +38°C° 0 mm 3 mps 677 mmHg 19%
    20:00 +36°C° 0 mm 3 mps 677 mmHg 21%
    21:00 +35°C° 0 mm 4 mps 677 mmHg 26%
    22:00 +34°C° 0 mm 5 mps 678 mmHg 31%
    23:00 +33°C° 0 mm 6 mps 678 mmHg 35%

    25 January, Friday

    Time Temperature Precipitation Wind Pressure Humidity
    00:00 +32°C° 0 mm 6 mps 678 mmHg 36%
    01:00 +30°C° 0 mm 6 mps 678 mmHg 36%
    02:00 +30°C° 0 mm 6 mps 678 mmHg 37%
    03:00 +29°C° 0 mm 5 mps 678 mmHg 38%
    04:00 +28°C° 0 mm 5 mps 679 mmHg 39%
    05:00 +28°C° 0 mm 5 mps 679 mmHg 40%
    06:00 +28°C° 0 mm 6 mps 680 mmHg 45%
    07:00 +28°C° 0 mm 6 mps 681 mmHg 51%
    08:00 +28°C° 0 mm 7 mps 681 mmHg 56%
    09:00 +29°C° 0 mm 7 mps 681 mmHg 52%
    10:00 +30°C° 0 mm 6 mps 682 mmHg 49%
    11:00 +33°C° 0 mm 6 mps 682 mmHg 45%
    12:00 +35°C° 0 mm 6 mps 681 mmHg 40%
    13:00 +36°C° 0 mm 5 mps 681 mmHg 34%
    14:00 +39°C° 0 mm 5 mps 680 mmHg 29%
    15:00 +40°C° 0 mm 4 mps 680 mmHg 27%
    16:00 +40°C° 0 mm 4 mps 679 mmHg 25%
    17:00 +39°C° 0 mm 3 mps 679 mmHg 22%
    18:00 +37°C° 0 mm 3 mps 679 mmHg 27%
    19:00 +35°C° 0 mm 4 mps 679 mmHg 32%
    20:00 +33°C° 0 mm 4 mps 679 mmHg 37%
    21:00 +30°C° 1.8 mm 5 mps 679 mmHg 46%
    22:00 +28°C° 1.8 mm 6 mps 679 mmHg 55%
    23:00 +26°C° 1.8 mm 7 mps 680 mmHg 64%

    26 January, Saturday

    Time Temperature Precipitation Wind Pressure Humidity
    00:00 +26°C° 0.1 mm 7 mps 680 mmHg 62%
    01:00 +24°C° 0.1 mm 6 mps 679 mmHg 60%
    02:00 +24°C° 0.1 mm 6 mps 679 mmHg 58%
    03:00 +24°C° 0.1 mm 6 mps 679 mmHg 60%
    04:00 +25°C° 0.1 mm 5 mps 679 mmHg 63%
    05:00 +23°C° 0.1 mm 5 mps 679 mmHg 65%
    06:00 +25°C° 0 mm 5 mps 680 mmHg 64%
    07:00 +26°C° 0 mm 5 mps 681 mmHg 62%
    08:00 +27°C° 0 mm 5 mps 681 mmHg 60%
    09:00 +29°C° 0 mm 5 mps 682 mmHg 54%
    10:00 +32°C° 0 mm 5 mps 682 mmHg 48%
    11:00 +34°C° 0 mm 5 mps 682 mmHg 41%
    12:00 +35°C° 0 mm 5 mps 681 mmHg 37%
    13:00 +37°C° 0 mm 4 mps 681 mmHg 32%
    14:00 +38°C° 0 mm 3 mps 681 mmHg 27%
    15:00 +38°C° 0 mm 3 mps 680 mmHg 27%
    16:00 +38°C° 0 mm 2 mps 680 mmHg 27%
    17:00 +37°C° 0 mm 1 mps 679 mmHg 26%
    18:00 +36°C° 0.1 mm 2 mps 679 mmHg 30%
    19:00 +34°C° 0.1 mm 3 mps 679 mmHg 35%
    20:00 +33°C° 0.1 mm 4 mps 679 mmHg 39%
    21:00 +30°C° 2 mm 3 mps 679 mmHg 46%
    22:00 +28°C° 2 mm 2 mps 680 mmHg 53%
    23:00 +27°C° 2 mm 1 mps 680 mmHg 60%

    27 January, Sunday

    Time Temperature Precipitation Wind Pressure Humidity
    00:00 +26°C° 0.1 mm 3 mps 680 mmHg 65%
    01:00 +24°C° 0.1 mm 6 mps 679 mmHg 69%
    02:00 +24°C° 0.1 mm 8 mps 679 mmHg 74%
    03:00 +23°C° 0.3 mm 6 mps 679 mmHg 75%
    04:00 +23°C° 0.3 mm 5 mps 679 mmHg 77%
    05:00 +22°C° 0.3 mm 4 mps 679 mmHg 78%
    06:00 +23°C° 0.1 mm 5 mps 680 mmHg 76%
    07:00 +23°C° 0.1 mm 6 mps 681 mmHg 75%
    08:00 +23°C° 0.1 mm 7 mps 681 mmHg 73%
    09:00 +24°C° 0 mm 6 mps 681 mmHg 72%
    10:00 +24°C° 0 mm 6 mps 681 mmHg 70%
    11:00 +24°C° 0 mm 6 mps 681 mmHg 69%
    12:00 +28°C° 0 mm 5 mps 681 mmHg 60%
    13:00 +30°C° 0 mm 5 mps 680 mmHg 52%
    14:00 +33°C° 0 mm 4 mps 680 mmHg 44%
    15:00 +34°C° 0 mm 4 mps 680 mmHg 42%
    16:00 +35°C° 0 mm 4 mps 679 mmHg 40%
    17:00 +35°C° 0 mm 3 mps 679 mmHg 37%
    18:00 +34°C° 0 mm 3 mps 678 mmHg 41%
    19:00 +33°C° 0 mm 3 mps 678 mmHg 44%
    20:00 +30°C° 0 mm 4 mps 678 mmHg 48%
    21:00 +29°C° 1 mm 4 mps 679 mmHg 55%
    22:00 +27°C° 1 mm 4 mps 679 mmHg 62%
    23:00 +25°C° 1 mm 4 mps 680 mmHg 69%
    Show more